This is the latest recevied weather packets stored in our database for station/object SP3OTE-2. If no packets are shown the sender has not sent any weather packets the latest 10 day(s).
| Time | Temp. | Humidity | Pressure | Rain* | Wind** | Luminosity | Snow |
|---|---|---|---|---|---|---|---|
| 1777144785 | 14.44° C | 44% | 1008.8 hPa | - | - | - | - |
| 1777144185 | 14.44° C | 44% | 1008.9 hPa | - | - | - | - |
| 1777143585 | 15° C | 43% | 1008.8 hPa | - | - | - | - |
| 1777142984 | 15° C | 43% | 1008.7 hPa | - | - | - | - |
| 1777142384 | 15.56° C | 42% | 1008.8 hPa | - | - | - | - |
| 1777141784 | 15.56° C | 42% | 1008.7 hPa | - | - | - | - |
| 1777141184 | 16.11° C | 41% | 1008.7 hPa | - | - | - | - |
| 1777140583 | 16.11° C | 40% | 1008.8 hPa | - | - | - | - |
| 1777139983 | 16.67° C | 39% | 1008.7 hPa | - | - | - | - |
| 1777139383 | 17.22° C | 38% | 1008.6 hPa | - | - | - | - |
| 1777138783 | 17.78° C | 36% | 1008.7 hPa | - | - | - | - |
| 1777138182 | 18.33° C | 35% | 1008.7 hPa | - | - | - | - |
| 1777137582 | 19.44° C | 34% | 1008.8 hPa | - | - | - | - |
| 1777136982 | 21.67° C | 32% | 1008.6 hPa | - | - | - | - |
| 1777136382 | 22.22° C | 31% | 1008.7 hPa | - | - | - | - |
| 1777135781 | 22.78° C | 30% | 1008.9 hPa | - | - | - | - |
| 1777135181 | 22.78° C | 30% | 1008.9 hPa | - | - | - | - |
| 1777134580 | 22.22° C | 30% | 1008.9 hPa | - | - | - | - |
| 1777133980 | 23.33° C | 29% | 1009.1 hPa | - | - | - | - |
| 1777133379 | 24.44° C | 29% | 1009.1 hPa | - | - | - | - |
| 1777132779 | 23.33° C | 30% | 1009.3 hPa | - | - | - | - |
| 1777132179 | 22.78° C | 31% | 1009.2 hPa | - | - | - | - |
| 1777131579 | 22.22° C | 30% | 1009.4 hPa | - | - | - | - |
| 1777130978 | 22.78° C | 31% | 1009.4 hPa | - | - | - | - |
| 1777130378 | 22.22° C | 31% | 1009.5 hPa | - | - | - | - |
* Rain since midnight (hover to see other rain measurements)
** Current wind speed in m/s (hover to see current wind gust speed)